LAN509 SCEL-SCPC

Flight info

Callsign LAN509
Flight time 0h 57m
Altitude 35000
Route LINER6C LINER UQ805 TOSET DCT 390540S0714570W 391310S0714870W 391710S0714930W DCT 391810S0715120W
Aircraft A319/M-SDE3FGHIRWY/LB1

Departure

Time 2026-05-05 18:07
Airport Comodoro Arturo Merino Benítez International Airport (SCEL)

Arrival

Time 2026-05-05 19:04
Airport Pucón Airport (SCPC)
Time Latitude Longitude Altitude Speed Heading
2026-05-05 17:44 -33.39608 -70.79696 1565 ft 0 kts 177°
2026-05-05 17:56 -33.39589 -70.79697 1565 ft 4 kts 177°
2026-05-05 17:56 -33.39562 -70.79699 1565 ft 4 kts 177°
2026-05-05 17:57 -33.39540 -70.79699 1565 ft 4 kts 206°
2026-05-05 17:57 -33.39523 -70.79677 1565 ft 4 kts 253°
2026-05-05 17:57 -33.39520 -70.79661 1565 ft 0 kts 267°
2026-05-05 18:00 -33.39520 -70.79668 1565 ft 2 kts 267°
2026-05-05 18:00 -33.39522 -70.79696 1565 ft 5 kts 267°
2026-05-05 18:00 -33.39524 -70.79743 1565 ft 7 kts 267°
2026-05-05 18:01 -33.39526 -70.79805 1565 ft 8 kts 267°
2026-05-05 18:01 -33.39530 -70.79883 1562 ft 10 kts 267°
2026-05-05 18:01 -33.39532 -70.79975 1578 ft 12 kts 271°
2026-05-05 18:01 -33.39483 -70.80046 1578 ft 13 kts 348°
2026-05-05 18:02 -33.39388 -70.80051 1578 ft 14 kts 356°
2026-05-05 18:02 -33.39281 -70.80056 1579 ft 16 kts 356°
2026-05-05 18:02 -33.39163 -70.80064 1579 ft 18 kts 356°
2026-05-05 18:02 -33.39033 -70.80074 1580 ft 19 kts 356°
2026-05-05 18:03 -33.38894 -70.80082 1581 ft 21 kts 359°
2026-05-05 18:03 -33.38742 -70.80088 1580 ft 23 kts 357°
2026-05-05 18:03 -33.38577 -70.80097 1581 ft 25 kts 357°
2026-05-05 18:03 -33.38400 -70.80106 1581 ft 27 kts 357°
2026-05-05 18:04 -33.38208 -70.80116 1580 ft 28 kts 357°
2026-05-05 18:04 -33.38004 -70.80128 1580 ft 30 kts 358°
2026-05-05 18:04 -33.37787 -70.80140 1580 ft 32 kts 357°
2026-05-05 18:04 -33.37557 -70.80151 1580 ft 34 kts 357°
2026-05-05 18:05 -33.37312 -70.80164 1581 ft 36 kts 358°
2026-05-05 18:05 -33.37123 -70.80203 1581 ft 20 kts 309°
2026-05-05 18:05 -33.37118 -70.80341 1586 ft 12 kts 236°
2026-05-05 18:05 -33.37204 -70.80374 1585 ft 15 kts 176°
2026-05-05 18:06 -33.37397 -70.80362 1586 ft 52 kts 177°
2026-05-05 18:06 -33.37721 -70.80346 1585 ft 89 kts 178°
2026-05-05 18:06 -33.38864 -70.80283 1575 ft 155 kts 177°
2026-05-05 18:06 -33.40024 -70.80233 1922 ft 172 kts 178°
2026-05-05 18:07 -33.41254 -70.80179 2508 ft 179 kts 179°
2026-05-05 18:07 -33.42564 -70.80107 2953 ft 200 kts 179°
2026-05-05 18:07 -33.44044 -70.80023 3414 ft 225 kts 179°
2026-05-05 18:07 -33.45671 -70.79933 3949 ft 249 kts 178°
2026-05-05 18:08 -33.47487 -70.79831 4580 ft 270 kts 178°
2026-05-05 18:08 -33.49403 -70.79722 5433 ft 281 kts 178°
2026-05-05 18:08 -33.51386 -70.79611 6351 ft 288 kts 178°
2026-05-05 18:08 -33.53412 -70.79499 7224 ft 295 kts 178°
2026-05-05 18:09 -33.55483 -70.79326 8076 ft 302 kts 176°
2026-05-05 18:09 -33.57600 -70.79099 8955 ft 309 kts 175°
2026-05-05 18:09 -33.59765 -70.78848 9760 ft 316 kts 176°
2026-05-05 18:09 -33.61998 -70.78584 10354 ft 331 kts 176°
2026-05-05 18:10 -33.64368 -70.78308 10690 ft 352 kts 176°
2026-05-05 18:10 -33.66845 -70.78027 11342 ft 360 kts 176°
2026-05-05 18:10 -33.69359 -70.77748 12082 ft 365 kts 177°
2026-05-05 18:10 -33.71908 -70.77469 12853 ft 370 kts 177°
2026-05-05 18:11 -33.74464 -70.77194 13628 ft 374 kts 178°
2026-05-05 18:11 -33.77078 -70.76914 14309 ft 379 kts 178°
2026-05-05 18:11 -33.79720 -70.76631 14971 ft 383 kts 178°
2026-05-05 18:11 -33.82385 -70.76344 15637 ft 387 kts 179°
2026-05-05 18:12 -33.85081 -70.76050 16305 ft 391 kts 179°
2026-05-05 18:12 -33.87804 -70.75751 16980 ft 395 kts 179°
2026-05-05 18:12 -33.90559 -70.75447 17633 ft 399 kts 180°
2026-05-05 18:12 -33.93323 -70.75397 18292 ft 397 kts 191°
2026-05-05 18:13 -33.96055 -70.75815 18872 ft 396 kts 195°
2026-05-05 18:13 -33.98797 -70.76280 19450 ft 399 kts 195°
2026-05-05 18:13 -34.01551 -70.76743 20005 ft 402 kts 195°
2026-05-05 18:13 -34.04327 -70.77209 20636 ft 404 kts 195°
2026-05-05 18:14 -34.07120 -70.77679 21231 ft 407 kts 195°
2026-05-05 18:14 -34.09935 -70.78154 21820 ft 410 kts 195°
2026-05-05 18:14 -34.12765 -70.78632 22399 ft 412 kts 195°
2026-05-05 18:14 -34.15620 -70.79117 22977 ft 416 kts 195°
2026-05-05 18:15 -34.18491 -70.79601 23555 ft 419 kts 195°
2026-05-05 18:15 -34.21385 -70.80087 24035 ft 422 kts 196°
2026-05-05 18:15 -34.24303 -70.80580 24512 ft 424 kts 196°
2026-05-05 18:15 -34.27233 -70.81077 24979 ft 426 kts 196°
2026-05-05 18:16 -34.30180 -70.81577 25451 ft 429 kts 196°
2026-05-05 18:16 -34.33143 -70.82077 25914 ft 431 kts 196°
2026-05-05 18:16 -34.36086 -70.82573 26363 ft 434 kts 196°
2026-05-05 18:16 -34.39090 -70.83081 26814 ft 436 kts 196°
2026-05-05 18:17 -34.42102 -70.83595 27261 ft 438 kts 197°
2026-05-05 18:17 -34.45132 -70.84112 27698 ft 441 kts 196°
2026-05-05 18:17 -34.48176 -70.84633 28134 ft 444 kts 197°
2026-05-05 18:17 -34.51242 -70.85158 28592 ft 446 kts 197°
2026-05-05 18:18 -34.54326 -70.85687 29038 ft 449 kts 197°
2026-05-05 18:18 -34.57430 -70.86217 29465 ft 452 kts 197°
2026-05-05 18:18 -34.60554 -70.86751 29903 ft 454 kts 197°
2026-05-05 18:18 -34.63691 -70.87285 30259 ft 456 kts 197°
2026-05-05 18:19 -34.66845 -70.87820 30594 ft 459 kts 197°
2026-05-05 18:19 -34.70014 -70.88359 30875 ft 462 kts 197°
2026-05-05 18:19 -34.73199 -70.88904 31187 ft 463 kts 197°
2026-05-05 18:19 -34.76403 -70.89453 31495 ft 466 kts 197°
2026-05-05 18:20 -34.79619 -70.90004 31897 ft 466 kts 198°
2026-05-05 18:20 -34.82826 -70.90550 32389 ft 465 kts 198°
2026-05-05 18:20 -34.86027 -70.91097 32848 ft 464 kts 198°
2026-05-05 18:20 -34.89219 -70.91646 33334 ft 463 kts 199°
2026-05-05 18:21 -34.92405 -70.92194 33831 ft 462 kts 199°
2026-05-05 18:21 -34.95594 -70.92742 34195 ft 463 kts 199°
2026-05-05 18:21 -34.98783 -70.93290 34585 ft 462 kts 199°
2026-05-05 18:21 -35.01922 -70.93829 34868 ft 461 kts 199°
2026-05-05 18:22 -35.05135 -70.94380 34953 ft 455 kts 199°
2026-05-05 18:22 -35.11293 -70.95431 34959 ft 447 kts 200°
2026-05-05 18:23 -35.17451 -70.96507 34959 ft 446 kts 200°
2026-05-05 18:23 -35.23606 -70.97583 34969 ft 446 kts 200°
2026-05-05 18:24 -35.29750 -70.98647 34962 ft 446 kts 200°
2026-05-05 18:24 -35.35900 -70.99715 34969 ft 445 kts 200°
2026-05-05 18:25 -35.42040 -71.00783 34974 ft 446 kts 200°
2026-05-05 18:25 -35.48185 -71.01854 34967 ft 445 kts 200°
2026-05-05 18:26 -35.54325 -71.02933 34965 ft 445 kts 200°
2026-05-05 18:26 -35.60455 -71.04008 34961 ft 445 kts 200°
2026-05-05 18:27 -35.66556 -71.05075 34943 ft 444 kts 200°
2026-05-05 18:27 -35.72688 -71.06144 34948 ft 445 kts 200°
2026-05-05 18:28 -35.81884 -71.07759 34960 ft 445 kts 200°
2026-05-05 18:28 -35.88010 -71.08838 34948 ft 444 kts 200°
2026-05-05 18:29 -35.94131 -71.09922 34955 ft 444 kts 200°
2026-05-05 18:29 -36.00250 -71.11007 34946 ft 443 kts 200°
2026-05-05 18:30 -36.06358 -71.12087 34949 ft 445 kts 200°
2026-05-05 18:30 -36.12276 -71.13131 34939 ft 444 kts 201°
2026-05-05 18:31 -36.18364 -71.14212 34933 ft 443 kts 201°
2026-05-05 18:31 -36.24471 -71.15306 34933 ft 443 kts 201°
2026-05-05 18:32 -36.30590 -71.16390 34939 ft 445 kts 201°
2026-05-05 18:32 -36.36699 -71.17478 34916 ft 442 kts 201°
2026-05-05 18:33 -36.42807 -71.18576 34932 ft 444 kts 201°
2026-05-05 18:33 -36.48929 -71.19665 34933 ft 444 kts 201°
2026-05-05 18:34 -36.55010 -71.20748 34938 ft 444 kts 201°
2026-05-05 18:34 -36.61141 -71.21854 34947 ft 445 kts 201°
2026-05-05 18:35 -36.67270 -71.22956 34941 ft 445 kts 201°
2026-05-05 18:35 -36.73403 -71.24060 34935 ft 444 kts 201°
2026-05-05 18:36 -36.79535 -71.25172 34938 ft 445 kts 201°
2026-05-05 18:36 -36.85660 -71.26282 34938 ft 445 kts 201°
2026-05-05 18:37 -36.91778 -71.27384 34934 ft 443 kts 201°
2026-05-05 18:37 -36.97881 -71.28487 34923 ft 443 kts 201°
2026-05-05 18:38 -37.03987 -71.29594 34937 ft 444 kts 200°
2026-05-05 18:38 -37.10091 -71.30709 34930 ft 443 kts 201°
2026-05-05 18:39 -37.16189 -71.31825 34926 ft 443 kts 200°
2026-05-05 18:39 -37.22287 -71.32931 34917 ft 443 kts 200°
2026-05-05 18:40 -37.27359 -71.33859 34883 ft 444 kts 200°
2026-05-05 18:40 -37.31408 -71.34604 34562 ft 443 kts 200°
2026-05-05 18:40 -37.34451 -71.35160 34324 ft 441 kts 200°
2026-05-05 18:41 -37.37471 -71.35706 33949 ft 438 kts 199°
2026-05-05 18:41 -37.39512 -71.36077 33587 ft 438 kts 199°
2026-05-05 18:41 -37.42532 -71.36630 33108 ft 437 kts 199°
2026-05-05 18:41 -37.46499 -71.37362 32482 ft 434 kts 200°
2026-05-05 18:42 -37.48479 -71.37728 32171 ft 433 kts 200°
2026-05-05 18:42 -37.51450 -71.38276 31709 ft 430 kts 199°
2026-05-05 18:42 -37.54444 -71.38826 31245 ft 428 kts 199°
2026-05-05 18:42 -37.57341 -71.39358 30801 ft 426 kts 199°
2026-05-05 18:43 -37.60270 -71.39900 30372 ft 424 kts 199°
2026-05-05 18:43 -37.63194 -71.40442 29917 ft 423 kts 199°
2026-05-05 18:43 -37.66094 -71.40979 29466 ft 420 kts 199°
2026-05-05 18:43 -37.68973 -71.41509 29054 ft 417 kts 199°
2026-05-05 18:44 -37.71836 -71.42034 28642 ft 414 kts 199°
2026-05-05 18:44 -37.74670 -71.42557 28254 ft 410 kts 199°
2026-05-05 18:44 -37.77488 -71.43079 27855 ft 407 kts 199°
2026-05-05 18:44 -37.80288 -71.43599 27451 ft 406 kts 199°
2026-05-05 18:45 -37.83086 -71.44124 26714 ft 411 kts 199°
2026-05-05 18:45 -37.85961 -71.44679 25741 ft 424 kts 199°
2026-05-05 18:45 -37.88859 -71.45228 25456 ft 417 kts 199°
2026-05-05 18:45 -37.91709 -71.45752 24984 ft 411 kts 199°
2026-05-05 18:46 -37.94532 -71.46265 24358 ft 408 kts 199°
2026-05-05 18:46 -37.97305 -71.46760 23910 ft 399 kts 199°
2026-05-05 18:46 -38.00056 -71.47260 23444 ft 400 kts 200°
2026-05-05 18:46 -38.02777 -71.47767 22946 ft 399 kts 200°
2026-05-05 18:47 -38.05517 -71.48279 22490 ft 396 kts 200°
2026-05-05 18:47 -38.08229 -71.48786 22026 ft 392 kts 200°
2026-05-05 18:47 -38.10914 -71.49287 21580 ft 387 kts 200°
2026-05-05 18:47 -38.13568 -71.49785 21135 ft 384 kts 200°
2026-05-05 18:48 -38.16204 -71.50280 20687 ft 382 kts 200°
2026-05-05 18:48 -38.18830 -71.50779 20240 ft 382 kts 200°
2026-05-05 18:48 -38.21456 -71.51281 19787 ft 382 kts 200°
2026-05-05 18:48 -38.24082 -71.51778 19352 ft 381 kts 199°
2026-05-05 18:49 -38.26708 -71.52272 18888 ft 379 kts 199°
2026-05-05 18:49 -38.29309 -71.52760 18444 ft 377 kts 198°
2026-05-05 18:49 -38.31896 -71.53248 17972 ft 375 kts 199°
2026-05-05 18:49 -38.34460 -71.53730 17522 ft 370 kts 199°
2026-05-05 18:50 -38.36997 -71.54203 17081 ft 367 kts 199°
2026-05-05 18:50 -38.39484 -71.54669 16660 ft 365 kts 199°
2026-05-05 18:50 -38.41988 -71.55142 16220 ft 361 kts 199°
2026-05-05 18:50 -38.44461 -71.55609 15803 ft 357 kts 198°
2026-05-05 18:51 -38.46912 -71.56071 15407 ft 355 kts 199°
2026-05-05 18:51 -38.49346 -71.56532 15014 ft 352 kts 199°
2026-05-05 18:51 -38.51688 -71.57226 14640 ft 344 kts 205°
2026-05-05 18:51 -38.54007 -71.58018 14252 ft 346 kts 205°
2026-05-05 18:52 -38.56341 -71.58815 13853 ft 348 kts 205°
2026-05-05 18:52 -38.58693 -71.59618 13453 ft 351 kts 204°
2026-05-05 18:52 -38.61054 -71.60421 13097 ft 349 kts 204°
2026-05-05 18:52 -38.63403 -71.61214 12692 ft 349 kts 203°
2026-05-05 18:53 -38.65733 -71.61999 12510 ft 344 kts 203°
2026-05-05 18:53 -38.68035 -71.62772 11954 ft 340 kts 203°
2026-05-05 18:53 -38.70308 -71.63538 11516 ft 333 kts 203°
2026-05-05 18:53 -38.72478 -71.64266 11280 ft 320 kts 203°
2026-05-05 18:54 -38.74608 -71.64986 10933 ft 313 kts 203°
2026-05-05 18:54 -38.76690 -71.65698 10600 ft 307 kts 203°
2026-05-05 18:54 -38.78753 -71.66412 10247 ft 307 kts 202°
2026-05-05 18:54 -38.80794 -71.67117 9900 ft 299 kts 202°
2026-05-05 18:55 -38.82781 -71.67798 9577 ft 296 kts 202°
2026-05-05 18:55 -38.84781 -71.68486 9220 ft 298 kts 201°
2026-05-05 18:55 -38.86787 -71.69176 8881 ft 299 kts 201°
2026-05-05 18:55 -38.88800 -71.69866 8544 ft 301 kts 201°
2026-05-05 18:56 -38.90833 -71.70564 8196 ft 302 kts 200°
2026-05-05 18:56 -38.92867 -71.71263 7901 ft 303 kts 200°
2026-05-05 18:56 -38.94900 -71.71960 7772 ft 302 kts 200°
2026-05-05 18:56 -38.96918 -71.72647 7501 ft 298 kts 201°
2026-05-05 18:57 -38.98919 -71.73327 7058 ft 297 kts 200°
2026-05-05 18:57 -39.00882 -71.74000 6722 ft 292 kts 195°
2026-05-05 18:57 -39.02827 -71.74671 6274 ft 291 kts 201°
2026-05-05 18:57 -39.04777 -71.75346 5812 ft 287 kts 198°
2026-05-05 18:58 -39.06681 -71.75997 5477 ft 281 kts 198°
2026-05-05 18:58 -39.08561 -71.76638 5143 ft 277 kts 198°
2026-05-05 18:58 -39.10387 -71.77277 4937 ft 263 kts 197°
2026-05-05 18:58 -39.12089 -71.77938 4778 ft 251 kts 198°
2026-05-05 18:59 -39.13719 -71.78600 4577 ft 240 kts 198°
2026-05-05 18:59 -39.15277 -71.79239 4371 ft 230 kts 198°
2026-05-05 18:59 -39.16766 -71.79847 4176 ft 218 kts 198°
2026-05-05 18:59 -39.18170 -71.80418 3980 ft 206 kts 198°
2026-05-05 19:00 -39.19498 -71.80954 3814 ft 196 kts 198°
2026-05-05 19:00 -39.20737 -71.81451 3681 ft 178 kts 198°
2026-05-05 19:00 -39.21882 -71.81896 3505 ft 165 kts 193°
2026-05-05 19:00 -39.22970 -71.82024 3359 ft 154 kts 184°
2026-05-05 19:01 -39.24023 -71.82112 3217 ft 150 kts 185°
2026-05-05 19:01 -39.25070 -71.82202 3096 ft 153 kts 184°
2026-05-05 19:01 -39.26128 -71.82293 2952 ft 150 kts 185°
2026-05-05 19:01 -39.27154 -71.82381 2825 ft 146 kts 184°
2026-05-05 19:02 -39.28162 -71.82504 2685 ft 146 kts 194°
2026-05-05 19:02 -39.28994 -71.83199 2528 ft 146 kts 231°
2026-05-05 19:02 -39.29578 -71.84266 2275 ft 144 kts 235°
2026-05-05 19:02 -39.30057 -71.85338 2086 ft 136 kts 253°
2026-05-05 19:03 -39.30075 -71.86528 1745 ft 134 kts 283°
2026-05-05 19:03 -39.29852 -71.87678 1502 ft 130 kts 281°
2026-05-05 19:03 -39.29666 -71.88816 1296 ft 129 kts 282°
2026-05-05 19:03 -39.29494 -71.89954 1086 ft 129 kts 281°
2026-05-05 19:04 -39.29311 -71.91082 895 ft 125 kts 282°
2026-05-05 19:04 -39.29168 -71.91951 888 ft 58 kts 281°
2026-05-05 19:04 -39.29132 -71.92183 887 ft 21 kts 282°
2026-05-05 19:04 -39.29103 -71.92348 911 ft 22 kts 283°
2026-05-05 19:05 -39.29058 -71.92520 913 ft 16 kts 302°
2026-05-05 19:05 -39.29065 -71.92567 913 ft 0 kts 199°
2026-05-05 19:05 -39.29084 -71.92553 913 ft 3 kts 133°
2026-05-05 19:05 -39.29088 -71.92484 914 ft 24 kts 96°
2026-05-05 19:06 -39.29123 -71.92251 912 ft 26 kts 99°
2026-05-05 19:06 -39.29096 -71.92178 912 ft 1 kts 353°
2026-05-05 19:06 -39.29095 -71.92179 912 ft 0 kts 347°
2026-05-05 19:06 -39.29086 -71.92182 912 ft 2 kts 347°
2026-05-05 19:07 -39.29068 -71.92186 914 ft 8 kts 355°
2026-05-05 19:07 -39.29023 -71.92160 912 ft 6 kts 62°
2026-05-05 19:07 -39.29009 -71.92116 913 ft 4 kts 75°
2026-05-05 19:07 -39.29009 -71.92088 914 ft 2 kts 99°
2026-05-05 19:08 -39.29024 -71.92068 912 ft 5 kts 155°
2026-05-05 19:08 -39.29030 -71.92069 911 ft 0 kts 189°